[[{"header":{"parameterUnit":"m.s-1","parameterCategory":1,"la1":30.2991,"la2":30.254,"lo1":-89.0895,"lo2":-89.0444,"dy":0.0017,"dx":0.0017,"nx":28,"ny":28,"refTime":"2025-09-16T09:00:00:Z","depth":0,"parameterNumber":2,"parameterNumberName":"U-component_of_WINDS"},"data":[0,0,0,0,0,0,0,0,0,0,0,0,0,0,0,0,0,0,0,0,0,0,0,0,0,0,0,0,0,0,0,0,0,0,0,0,0,0,0,0,0,0,0,0,0,0,0,0,0,0,0,0,0,0,0,0,0,0,1.7898,1.7898,0,1.7831,1.783,1.7829,1.7756,1.7755,1.7754,1.7753,1.7684,1.7683,1.7682,0,0,0,0,0,0,0,0,0,0,0,0,0,1.7962,1.7961,1.7898,1.7898,1.7897,1.7831,1.783,1.7829,1.7756,1.7755,1.7754,1.7752,1.7684,1.7683,1.7682,0,0,0,0,0,0,0,0,0,0,0,0,0,1.7918,1.7961,1.7899,1.7852,1.7848,1.7831,1.783,1.7829,1.7756,1.7755,1.7753,1.7752,1.7685,1.7683,1.7682,1.7706,0,0,1.7678,1.7678,0,0,0,0,0,0,0,0,1.7921,1.7916,1.786,1.7856,1.785,1.78,1.7827,1.7788,1.7757,1.7791,1.7753,1.7751,1.7724,1.7719,1.771,1.7703,1.77,1.7678,1.7677,1.7677,1.7677,0,0,0,0,0,0,0,1.7924,1.7918,1.7872,1.7859,1.7853,1.7834,1.7826,1.7819,1.7767,1.7788,1.7782,1.7775,1.7721,1.7712,1.7708,1.7699,1.7678,1.7677,1.7676,1.7676,1.7703,1.7704,0,0,0,0,0,0,1.7934,1.7921,1.7874,1.787,1.7882,1.7834,1.7826,1.7818,1.7767,1.7758,1.7777,1.7772,1.7715,1.771,1.7705,1.7726,1.7677,1.7676,1.7675,1.7701,1.7703,1.7705,0,0,0,0,0,0,1.7936,1.7931,1.7877,1.7894,1.7886,1.7835,1.7827,1.7817,1.7808,1.7759,1.7749,1.7777,1.7713,1.7707,1.7705,1.7723,1.7675,1.7674,1.77,1.7702,1.7704,1.7771,0,0,0,0,0,0,1.7938,1.7932,1.7941,1.7895,1.7885,1.7879,1.7828,1.7817,1.7806,1.7799,1.7756,1.7748,1.7712,1.7708,1.7704,1.7721,1.7673,1.7698,1.7701,1.7703,1.7767,1.7776,1.7783,0,0,0,0,0,1.794,1.7963,1.7942,1.7936,1.7896,1.788,1.7874,1.7832,1.7808,1.7816,1.7784,1.7749,1.7722,1.7708,1.7704,1.772,1.7697,1.77,1.7703,1.7764,1.7774,1.7783,0,0,0,0,0,0,1.8014,1.7957,1.7932,1.7941,1.7916,1.7868,1.7877,1.7845,1.7826,1.7821,1.7769,1.776,1.7763,1.7742,1.7727,1.7738,1.7704,1.7707,1.7752,1.7761,1.7769,1.7773,1.7672,0,0,0,0,0,1.8031,1.8023,1.7974,1.7986,1.7975,1.7928,1.792,1.7889,1.7861,1.785,1.7818,1.7792,1.7776,1.7768,1.7752,1.7764,1.7752,1.7773,1.7781,1.7787,1.779,1.779,1.7798,1.7716,1.7716,1.7716,0,0,1.8066,1.8034,1.8033,1.8,1.7977,1.7969,1.792,1.7914,1.7907,1.7849,1.7844,1.782,1.7787,1.7791,1.7791,1.7773,1.781,1.7792,1.7797,1.7796,1.7795,1.7802,1.7809,1.7718,1.7718,1.7717,0,0,1.8126,1.8103,1.8108,1.8086,1.8051,1.8019,1.8021,1.7977,1.7958,1.7952,1.7907,1.7898,1.7875,1.7852,1.7837,1.7885,1.7851,1.7881,1.7921,1.7922,1.7929,1.7934,1.7948,1.7954,1.7884,1.7884,1.7884,0,1.8174,1.8161,1.8116,1.8112,1.8097,1.8044,1.8048,1.8029,1.7991,1.7981,1.7961,1.7928,1.7903,1.7899,1.791,1.7901,1.7899,1.7885,1.7932,1.7937,1.7941,1.7953,1.7959,1.7888,1.7888,1.7887,1.7887,0,1.822,1.8211,1.822,1.8183,1.817,1.8171,1.8124,1.8117,1.8087,1.8057,1.805,1.8017,1.7991,1.7988,1.796,1.798,1.7969,1.7941,1.7906,1.7953,1.7964,1.7969,1.7893,1.7892,1.7891,1.789,0,0,1.8324,1.8261,1.8265,1.8245,1.8202,1.8194,1.8191,1.8165,1.8158,1.8133,1.8127,1.8107,1.808,1.8064,1.8032,1.8034,1.8069,1.8005,1.8003,1.8015,1.8084,1.8103,1.811,1.8047,1.8048,1.8049,1.8086,0,1.8374,1.8365,1.8323,1.8326,1.8316,1.8264,1.826,1.8233,1.8204,1.819,1.8158,1.8143,1.8111,1.81,1.8099,1.8065,1.8082,1.8062,1.8039,1.8039,1.8046,1.8116,1.8137,1.8174,1.809,1.8091,1.8091,0,1.8431,1.8408,1.841,1.8363,1.8357,1.8355,1.8326,1.8315,1.8281,1.826,1.824,1.8204,1.8195,1.8163,1.815,1.8137,1.8125,1.8107,1.8107,1.8101,1.8067,1.8109,1.8185,1.819,1.8098,1.8098,1.8097,0,1.8503,1.8472,1.8468,1.8454,1.8401,1.84,1.8378,1.8343,1.8329,1.8304,1.8293,1.8269,1.8254,1.8235,1.8192,1.8173,1.8181,1.8147,1.8161,1.8162,1.8164,1.8164,1.8236,1.8161,1.8161,1.8161,1.8161,0,1.8561,1.8563,1.8499,1.8497,1.8497,1.8448,1.8449,1.8422,1.839,1.838,1.8335,1.8326,1.8271,1.8255,1.8222,1.8213,1.8208,1.8189,1.8179,1.8191,1.8193,1.8181,1.8176,1.8162,1.8162,1.8162,1.8161,0,1.864,1.8598,1.8589,1.8539,1.8526,1.8528,1.8484,1.8479,1.8447,1.8434,1.8428,1.8378,1.8357,1.8312,1.828,1.8257,1.8255,1.8241,1.8267,1.826,1.8276,1.8274,1.834,1.8345,1.827,1.8271,1.8272,0,1.8679,1.8679,1.8628,1.8618,1.8597,1.8582,1.8566,1.8518,1.8504,1.8464,1.8463,1.8438,1.8415,1.8383,1.8343,1.8317,1.8299,1.8324,1.8295,1.8306,1.8296,1.8295,1.8293,1.833,1.8331,1.8332,1.8333,0,1.8751,1.8729,1.871,1.8682,1.8666,1.8642,1.8615,1.8609,1.8554,1.8541,1.8518,1.85,1.8465,1.844,1.8407,1.8383,1.8348,1.8342,1.8344,1.8355,1.8369,1.8358,1.8281,1.8341,1.834,1.8339,1.8339,1.8339,1.8809,1.8805,1.8768,1.8747,1.8721,1.8697,1.8688,1.8655,1.8635,1.8603,1.8575,1.8554,1.8517,1.8469,1.8447,1.8428,1.8412,1.8415,1.8415,1.8416,1.8419,1.8374,1.8423,1.8423,1.8422,1.8422,1.8422,0,1.8875,1.8848,1.883,1.8793,1.8776,1.8745,1.8713,1.87,1.8683,1.8652,1.863,1.8602,1.8576,1.8534,1.8504,1.8497,1.848,1.8491,1.849,1.8484,1.8438,1.8438,1.8505,1.8505,1.8505,1.8505,1.8505,1.8505,1.8908,1.8899,1.8873,1.885,1.8823,1.8802,1.8786,1.8762,1.8736,1.8708,1.8686,1.8658,1.8621,1.8588,1.8563,1.855,1.854,1.8556,1.8538,1.8495,1.8488,1.848,1.848,1.8555,1.8555,1.8585,1.8585,1.8586]},{"header":{"parameterUnit":"m.s-1","parameterCategory":1,"la1":30.2991,"la2":30.254,"lo1":-89.0895,"lo2":-89.0444,"dy":0.0017,"dx":0.0017,"nx":28,"ny":28,"refTime":"2025-09-16T09:00:00:Z","depth":0,"parameterNumber":3,"parameterNumberName":"V-component_of_WINDS"},"data":[0,0,0,0,0,0,0,0,0,0,0,0,0,0,0,0,0,0,0,0,0,0,0,0,0,0,0,0,0,0,0,0,0,0,0,0,0,0,0,0,0,0,0,0,0,0,0,0,0,0,0,0,0,0,0,0,0,0,3.2816,3.2816,0,3.2844,3.2845,3.2845,3.2807,3.2806,3.2804,3.2803,3.283,3.2832,3.2834,0,0,0,0,0,0,0,0,0,0,0,0,0,3.2725,3.2727,3.2816,3.2816,3.2817,3.2844,3.2845,3.2845,3.2807,3.2806,3.2804,3.2802,3.2829,3.2831,3.2834,0,0,0,0,0,0,0,0,0,0,0,0,0,3.276,3.2727,3.2816,3.2801,3.28,3.2844,3.2845,3.2845,3.2808,3.2806,3.2804,3.2802,3.2828,3.2831,3.2834,3.2893,0,0,3.2843,3.2844,0,0,0,0,0,0,0,0,3.2758,3.2763,3.2803,3.2802,3.2801,3.282,3.2822,3.2861,3.2808,3.2805,3.2803,3.2801,3.2828,3.2831,3.2841,3.2894,3.2895,3.2843,3.2845,3.2846,3.2847,0,0,0,0,0,0,0,3.2756,3.2762,3.2827,3.2804,3.2802,3.2792,3.2795,3.2829,3.2827,3.2805,3.2802,3.2806,3.2827,3.2838,3.2841,3.2896,3.2843,3.2846,3.2848,3.2849,3.2995,3.2998,0,0,0,0,0,0,3.2755,3.276,3.2826,3.2828,3.2774,3.2795,3.2798,3.2816,3.2827,3.2827,3.2808,3.2804,3.2834,3.2837,3.2842,3.2908,3.2846,3.2849,3.2851,3.2993,3.2996,3.2998,0,0,0,0,0,0,3.2754,3.2762,3.2825,3.2793,3.28,3.2799,3.2819,3.2818,3.2828,3.2829,3.2828,3.2819,3.2832,3.2837,3.288,3.2909,3.285,3.2853,3.2991,3.2994,3.2997,3.3045,0,0,0,0,0,0,3.2751,3.2761,3.2785,3.2794,3.2802,3.2864,3.2821,3.282,3.2834,3.2829,3.284,3.284,3.2831,3.2876,3.2883,3.2912,3.2855,3.2988,3.2992,3.2996,3.304,3.3049,3.3056,0,0,0,0,0,3.2748,3.2797,3.2786,3.2794,3.2832,3.2866,3.287,3.286,3.2836,3.2859,3.2859,3.2839,3.2905,3.288,3.2888,3.2919,3.2986,3.2991,3.2996,3.3037,3.3047,3.3056,0,0,0,0,0,0,3.2791,3.2798,3.2786,3.284,3.2853,3.2859,3.2888,3.2872,3.2892,3.2886,3.2873,3.2875,3.292,3.2924,3.2896,3.2974,3.2941,3.2948,3.297,3.298,3.2988,3.2985,3.2858,0,0,0,0,0,3.2807,3.2835,3.2839,3.2886,3.2893,3.289,3.2904,3.2895,3.2907,3.2912,3.2916,3.2927,3.295,3.2966,3.2987,3.3041,3.3041,3.3066,3.3074,3.3081,3.3086,3.3111,3.3121,3.3014,3.3014,3.3014,0,0,3.284,3.2847,3.2866,3.2895,3.2904,3.2931,3.2894,3.2926,3.2945,3.2917,3.2956,3.2959,3.2971,3.3019,3.304,3.3023,3.3116,3.3087,3.3092,3.3093,3.3117,3.3127,3.3137,3.3017,3.3017,3.3016,0,0,3.2913,3.2923,3.2961,3.2971,3.2984,3.2981,3.299,3.2999,3.3,3.304,3.3018,3.3041,3.3082,3.309,3.31,3.3174,3.3155,3.3182,3.3223,3.3248,3.3256,3.3264,3.3287,3.3296,3.3187,3.3187,3.3187,0,3.2952,3.2993,3.2983,3.3015,3.3027,3.3003,3.3041,3.305,3.307,3.3078,3.306,3.3109,3.3116,3.3163,3.3181,3.3191,3.3199,3.3179,3.3256,3.3263,3.327,3.3292,3.3302,3.319,3.319,3.319,3.3189,0,3.3038,3.3068,3.3097,3.3116,3.3132,3.3167,3.316,3.3177,3.3167,3.3165,3.3204,3.3212,3.3232,3.3244,3.3234,3.3289,3.3278,3.3259,3.3225,3.3283,3.3304,3.3313,3.3194,3.3193,3.3192,3.3192,0,0,3.3139,3.3151,3.3162,3.3169,3.3182,3.3203,3.3236,3.3257,3.327,3.3285,3.331,3.3345,3.3325,3.3336,3.3328,3.335,3.3405,3.3327,3.3327,3.3339,3.3463,3.3475,3.3486,3.3393,3.3395,3.3396,3.3461,0,3.321,3.3267,3.3258,3.3312,3.3337,3.3314,3.3342,3.3351,3.335,3.337,3.3369,3.3392,3.3367,3.3373,3.3395,3.3394,3.3429,3.3389,3.3414,3.3415,3.3409,3.3497,3.3511,3.3571,3.3469,3.347,3.3471,0,3.33,3.3317,3.3374,3.3379,3.339,3.3415,3.3432,3.3452,3.3462,3.3459,3.3471,3.3457,3.3488,3.3456,3.3496,3.3469,3.3479,3.348,3.3482,3.3482,3.3445,3.3496,3.3591,3.3599,3.3485,3.3483,3.3483,0,3.3364,3.3401,3.3439,3.3446,3.3455,3.3473,3.3477,3.3485,3.3497,3.3512,3.3519,3.3538,3.3547,3.3561,3.3552,3.3529,3.3593,3.356,3.3589,3.359,3.3602,3.3601,3.3696,3.3613,3.3613,3.3613,3.3613,0,3.3442,3.3477,3.3467,3.349,3.3527,3.3516,3.3553,3.3555,3.3562,3.3583,3.3565,3.3585,3.3574,3.3593,3.3586,3.3619,3.3624,3.3621,3.3618,3.3621,3.3621,3.3626,3.362,3.3615,3.3615,3.3614,3.3614,0,3.3519,3.3514,3.3553,3.3558,3.356,3.3587,3.359,3.3611,3.3608,3.3636,3.3641,3.3637,3.3658,3.3651,3.3675,3.367,3.3711,3.3704,3.3707,3.3705,3.3733,3.3729,3.3833,3.3844,3.3756,3.3757,3.3758,0,3.3568,3.3594,3.3601,3.3614,3.3619,3.3641,3.3653,3.3643,3.3656,3.3668,3.3686,3.3706,3.3721,3.3756,3.3754,3.3771,3.3763,3.3798,3.3765,3.3767,3.376,3.3757,3.3759,3.3804,3.3805,3.3806,3.3806,0,3.3654,3.365,3.3668,3.3685,3.37,3.3713,3.3724,3.3736,3.3725,3.3741,3.3762,3.3774,3.3797,3.3816,3.3831,3.3834,3.3818,3.3817,3.3824,3.3826,3.3825,3.3823,3.3722,3.3814,3.3813,3.3813,3.3812,3.3812,3.3716,3.3737,3.3745,3.3765,3.3772,3.3782,3.3801,3.38,3.3818,3.3836,3.3829,3.3852,3.3859,3.3878,3.3883,3.3901,3.3887,3.3898,3.3901,3.3903,3.3905,3.3825,3.3904,3.3904,3.3904,3.3903,3.3903,0,3.3799,3.3802,3.3821,3.3837,3.3852,3.3836,3.3847,3.3861,3.3882,3.389,3.3905,3.3928,3.3946,3.3946,3.3962,3.3976,3.3969,3.398,3.3978,3.3978,3.3918,3.3909,3.3986,3.3986,3.3986,3.3986,3.3986,3.3986,3.3844,3.3877,3.3873,3.3909,3.3912,3.3935,3.3942,3.3951,3.3957,3.3984,3.3998,3.3998,3.4002,3.4018,3.4033,3.4033,3.4038,3.4052,3.4048,3.3991,3.3983,3.3975,3.3966,3.4054,3.4054,3.4106,3.4107,3.4107]}]]